Location: Bennemühlen
(52.5740°N, 9.7135°E)
Time: 21:02:51
(UTC+00:00)

Tiros 1 despin weight - Pass Details

Date: 22 February 2026
Orbit: 556 x 593 km, 48.2° (Epoch: 8 March)

Event Time Altitude Azimuth Distance (km) Brightness Sun altitude
Rises 17:17:28 0° 273° (W) 2,738 ? -5.4°
Reaches altitude 10° 17:19:56 10° 262° (W) 1,839 ? -5.7°
Maximum altitude 17:23:32 28° 203° (SSW) 1,049 ? -6.3°
Drops below altitude 10° 17:27:09 10° 143° (SE) 1,835 ? -6.8°
Sets 17:29:36 0° 132° (SE) 2,730 ? -7.2°
